TimePST,TemperatureF,Dew PointF,Humidity,Sea Level PressureIn,VisibilityMPH,Wind Direction,Wind SpeedMPH,Gust SpeedMPH,PrecipitationIn,Events,Conditions,WindDirDegrees,DateUTC
12:56 AM,1.0,-9999,N/A,30.36,4.0,Variable,5.8,-,0.02,Snow,Light Snow,0,2013-01-30 08:56:00
1:16 AM,1.4,1.4,100,30.21,2.5,Variable,4.6,-,0.01,Snow,Light Snow,0,2013-01-30 09:16:00
1:23 AM,1.4,1.4,100,30.21,6.0,Variable,3.5,-,0.01,Snow,Light Snow,0,2013-01-30 09:23:00
1:56 AM,1.0,1.0,100,30.36,4.0,Variable,4.6,-,0.03,Snow,Light Snow,0,2013-01-30 09:56:00
2:56 AM,1.0,1.0,100,30.35,10.0,Variable,4.6,-,0.02,,Overcast,0,2013-01-30 10:56:00
3:56 AM,1.0,1.0,100,30.36,10.0,West,5.8,-,N/A,,Overcast,280,2013-01-30 11:56:00
4:56 AM,1.0,-9999,N/A,30.36,10.0,Variable,5.8,-,N/A,,Overcast,0,2013-01-30 12:56:00
5:56 AM,1.0,-9999,N/A,30.35,10.0,Variable,4.6,-,N/A,,Overcast,0,2013-01-30 13:56:00
6:56 AM,1.0,-9999,N/A,30.36,10.0,Variable,3.5,-,N/A,,Overcast,0,2013-01-30 14:56:00
7:56 AM,1.0,-9999,N/A,30.38,10.0,Variable,4.6,-,N/A,,Overcast,0,2013-01-30 15:56:00
8:56 AM,1.0,1.0,100,30.37,10.0,Variable,3.5,-,N/A,,Overcast,0,2013-01-30 16:56:00
9:56 AM,1.0,-9999,N/A,30.49,10.0,Variable,3.5,-,N/A,,Overcast,0,2013-01-30 17:56:00
10:56 AM,1.0,1.0,100,30.51,10.0,Variable,4.6,-,N/A,,Overcast,0,2013-01-30 18:56:00
11:56 AM,-9999,-9999,N/A,30.25,10.0,Variable,5.8,17.3,N/A,,Overcast,0,2013-01-30 19:56:00
12:56 PM,-9999,-9999,N/A,30.24,10.0,Variable,3.5,-,N/A,,Overcast,0,2013-01-30 20:56:00
1:56 PM,-9999,-9999,N/A,30.25,10.0,Calm,Calm,-,N/A,,Overcast,0,2013-01-30 21:56:00
2:56 PM,-9999,-9999,N/A,30.23,10.0,Variable,5.8,-,N/A,,Overcast,0,2013-01-30 22:56:00
3:56 PM,-9999,-9999,N/A,30.25,10.0,NW,3.5,-,N/A,,Overcast,310,2013-01-30 23:56:00
4:56 PM,-9999,-9999,N/A,30.25,10.0,Variable,6.9,-,N/A,,Overcast,0,2013-01-31 00:56:00
5:56 PM,-9999,-9999,N/A,30.26,10.0,Variable,4.6,-,N/A,,Overcast,0,2013-01-31 01:56:00
6:56 PM,-9999,-9999,N/A,30.27,10.0,Calm,Calm,-,N/A,,Overcast,0,2013-01-31 02:56:00
7:07 PM,-9999,-9999,N/A,30.27,10.0,Variable,3.5,-,N/A,,Overcast,0,2013-01-31 03:07:00
7:56 PM,-9999,-9999,N/A,30.28,10.0,Calm,Calm,-,N/A,,Overcast,0,2013-01-31 03:56:00
8:56 PM,-9999,-9999,N/A,30.28,10.0,Calm,Calm,-,N/A,,Overcast,0,2013-01-31 04:56:00
9:56 PM,-9999,-9999,N/A,30.28,10.0,Calm,Calm,-,N/A,,Overcast,0,2013-01-31 05:56:00
10:56 PM,-9999,-9999,N/A,30.28,10.0,Variable,4.6,-,N/A,,Overcast,0,2013-01-31 06:56:00
11:56 PM,-9999,-9999,N/A,30.28,10.0,Variable,3.5,-,N/A,,Overcast,0,2013-01-31 07:56:00